Location: Makanda
(37.6176°N, 89.2090°W)
Time: 02:39:21
(UTC+00:00)

Daily predictions for brighter satellites

Satellite Brightness Start Highest point End
(mag) Time Altitude Azimuth Time Altitude Azimuth Time Altitude Azimuth
Resurs 1-3 4.5 01:34:59 10° SE 01:38:53 33° ENE 01:42:49 10° N
Cosmos 1758 Rocket 3.7 01:36:32 10° S 01:40:49 78° W 01:45:09 10° N
Cosmos 2298 Rocket 4.2 01:35:47 10° N 01:41:03 59° ENE 01:46:17 10° SSE
Cosmos 1125 Rocket 4.0 01:37:23 10° N 01:42:30 46° ENE 01:47:35 10° SE
NOSS 3-2 (A) 4.3 01:35:34 10° NW 01:43:26 85° WSW 01:52:11 10° SSE
deb Kosmos-1763 3.9 01:40:38 10° S 01:44:07 73° ESE 01:47:37 10° NNE
Cosmos 1869 3.3 01:48:14 10° N 01:52:03 58° E 01:55:50 10° SSE
COSMOS 2406 3.4 01:48:07 10° S 01:53:30 48° ESE 01:58:57 10° NE
Cosmos 2058 3.8 01:50:30 10° SSE 01:54:08 30° E 01:57:49 10° NNE
Cosmos 1825 2.4 01:51:51 10° SSE 01:55:26 46° E 01:59:03 10° NNE
Meteor 1-27 4.4 01:50:38 10° N 01:56:25 87° W 02:02:14 10° S
NOSS 3-4 (A) 3.4 01:50:43 10° SW 01:56:29 83° WNW 02:02:35 10° NNE
NOSS 3-4 (C) 3.4 01:50:49 10° SSW 01:56:35 85° WNW 02:02:41 10° NNE
USA 306 3.1 01:52:45 10° NW 01:57:01 65° NE 02:00:51 12° ESE
SAR-Lupe-1 4.3 01:54:23 10° N 01:57:57 76° WNW 02:01:30 10° SSW
SAR-Lupe-4 3.6 01:54:47 10° NNE 01:58:23 87° WNW 02:01:57 10° SSW
OBJECT-B 1.5 01:57:00 10° S 02:00:07 52° W 02:03:16 10° NNW
SL-19 R/B 4.2 01:58:17 10° S 02:01:26 67° WSW 02:05:00 10° NNW
Cosmos 405 Rocket 3.5 01:58:22 10° SSW 02:02:09 56° W 02:06:03 10° N
SJ-6B 3.0 01:59:04 10° S 02:02:47 67° W 02:06:30 10° NNW
Atlas Centaur 2 3.0 02:01:49 10° SSW 02:03:39 13° SSE 02:04:35 12° SSE
USA 32 4.0 01:59:53 10° N 02:05:07 70° E 02:10:20 10° S
ATLAS 2AS CENTAUR R/B 3.1 01:57:26 10° SSW 02:05:10 62° ESE 02:12:52 10° NE
Cosmos 1656 3.8 02:00:53 10° NNW 02:06:30 64° ENE 02:11:34 12° SSE
Centaur D-1AR AC-39 3.8 02:05:00 10° SW 02:06:54 12° SSW 02:08:24 10° S
Cosmos 1980 Rocket 3.9 02:04:36 10° NNE 02:08:22 18° NE 02:12:06 10° E
Cosmos 1437 Rocket 2.7 02:06:29 10° N 02:10:18 72° E 02:14:12 10° SSE
NOSS 3-2 (C) 4.2 02:02:38 10° NNW 02:10:30 89° ENE 02:18:50 12° SSE
Resurs 01 Rocket 2.1 02:08:50 13° SE 02:12:26 42° ENE 02:16:38 10° N
Cosmos 1408 3.9 02:12:45 10° SSW 02:16:13 42° W 02:19:42 10° N
Cosmos 1437 3.1 02:15:36 10° N 02:18:10 33° ENE 02:19:12 24° ESE
NOSS 2 (A) 4.3 02:17:27 10° NNW 02:19:56 52° NE 02:20:51 29° ESE
RESURS DK-1 3.1 02:17:57 10° SSE 02:21:35 30° ESE 02:25:15 10° NE
Cosmos-2242 4.3 02:18:00 10° NNW 02:22:01 41° W 02:26:00 10° SSW
OAO 3 Copernicus 4.4 02:17:48 10° WSW 02:22:42 54° SSE 02:26:48 14° E
Cosmos 2098 Rocket 3.7 02:22:42 18° E 02:22:43 18° E 02:24:54 10° NE
ATLAS 3B R/B 4.3 02:21:37 10° N 02:27:16 24° NE 02:32:46 11° E
USA 267 3.7 02:22:45 10° ENE 02:28:46 38° SE 02:34:44 10° SSW
CENTAUR R/B 3.7 02:21:01 10° NW 02:29:20 63° WSW 02:37:50 11° SSE
Cosmos 1633 3.3 02:29:08 25° SE 02:30:21 32° E 02:33:37 10° NNE
SPOT 1/Viking Rocket 4.1 02:28:26 20° SE 02:31:35 41° ENE 02:36:27 10° N
MetOp-B 4.5 02:28:47 19° SE 02:32:21 49° ENE 02:37:31 10° N
Cosmos 44 Rocket 3.4 02:29:24 10° SSW 02:34:32 86° ESE 02:39:48 10° NNE
Meteor 2-2 Rocket 4.2 02:29:47 10° N 02:35:37 77° E 02:40:10 17° SSE
ARIANE 5 R/B 4.1 02:38:33 20° E 02:40:01 23° ENE 02:43:34 10° NNE
ERS-2 3.4 02:37:19 10° N 02:40:46 41° WNW 02:44:11 10° SW
Ariane Rocket 3.5 02:37:38 10° S 02:42:38 57° W 02:47:38 10° NNW
SPOT 5 4.1 02:44:08 19° E 02:45:09 20° ENE 02:48:19 10° NNE
ATLAS 2A CENTAUR R/B 4.3 02:30:44 10° WSW 02:46:36 36° S 02:49:13 25° SE
Cosmos 2180 Rocket 4.4 02:40:34 10° N 02:46:46 77° E 02:51:12 20° SSE
SEDSat Delta rocket 3.6 02:45:55 10° SW 02:49:32 31° S 02:49:48 31° SSE
CZ-2C R/B 3.6 02:46:04 10° NNE 02:50:37 69° ESE 02:53:38 20° S
OAO 2 Rocket 3.4 02:46:28 10° W 02:51:24 58° S 02:53:27 33° SE
Cosmos 1242 Rocket 3.3 02:48:11 10° NNW 02:51:40 48° W 02:53:50 20° SSW
CARTOSAT-1 4.3 02:51:42 31° ESE 02:52:53 37° ENE 02:56:51 10° N
Cosmos 2221 2.4 02:49:43 10° N 02:54:02 90° SE 02:56:11 29° S
USA 307 3.8 02:52:02 10° WNW 02:56:02 40° SW 02:57:40 28° S
Cosmos 371 Rocket 4.2 02:59:45 10° N 03:04:03 32° ENE 03:05:07 29° E
ERBS 3.7 03:02:38 10° NNW 03:05:22 25° NE 03:05:39 25° NE
Terra 3.1 03:04:43 24° E 03:05:33 25° ENE 03:09:26 10° NNE
Cosmos 1697 Rocket 2.7 03:01:03 10° NNW 03:06:44 80° WSW 03:09:29 32° SSE
GRACE-FO 1 4.4 03:03:42 10° N 03:07:19 73° E 03:07:42 64° SE
GRACE-FO 2 4.4 03:04:09 10° N 03:07:45 74° E 03:08:10 64° SE
Hubble Space Telescope 2.5 03:05:26 10° SW 03:07:15 19° SSW 03:07:15 19° SSW
Cosmos 2082 Rocket 2.4 03:04:46 10° SSW 03:10:21 71° WNW 03:16:01 10° NNE
Cosmos 1606 2.6 03:06:37 10° N 03:10:23 80° W 03:11:14 52° S
USA 305 4.4 03:09:10 10° WNW 03:12:36 25° SW 03:13:42 22° SSW
SPOT 3 Rocket 4.0 03:09:29 23° S 03:12:40 58° W 03:17:50 10° NNW
USA 308 4.3 03:09:10 10° WNW 03:12:48 28° SW 03:13:51 25° SSW
Cosmos 1833 Rocket 4.5 03:09:17 10° WSW 03:14:16 32° WNW 03:19:18 10° N
Cosmos 2278 4.1 03:09:12 10° N 03:14:39 48° ENE 03:16:22 37° ESE
Meteor 2-15 4.5 03:09:34 10° N 03:15:34 61° E 03:17:44 39° SE
BREEZE-M R/B 3.4 03:11:07 10° SW 03:17:24 41° SSE 03:17:24 41° SSE
Cosmos 2195 Rocket 4.5 03:16:45 36° SSE 03:19:06 59° E 03:25:06 10° NNE
Cosmos 1782 4.4 03:20:39 10° NNE 03:23:15 23° ENE 03:23:15 23° ENE
Cosmos 2151 2.8 03:23:49 62° S 03:24:31 87° E 03:28:46 10° N
Meteor 2-15 Rocket 4.4 03:25:21 10° N 03:31:24 64° E 03:32:59 47° SE
Centaur D AC-29 4.2 03:25:20 10° W 03:31:56 14° SW 03:35:11 11° SSW
Cosmos 1092 Rocket 3.9 03:29:20 36° S 03:32:04 81° E 03:38:21 10° N
GP-B 2.9 03:30:14 10° N 03:34:41 76° E 03:34:52 74° ESE
Meteor 2-3 Rocket 3.6 03:36:27 45° S 03:38:16 86° E 03:43:59 10° N
Cosmos 332 Rocket 4.4 03:34:49 10° N 03:39:27 42° ENE 03:39:38 42° ENE
Cosmos 1680 Rocket 4.3 03:40:32 36° ENE 03:40:32 36° ENE 03:44:30 10° NE
ERS-1 Rocket 2.8 03:40:52 65° SSE 03:41:38 86° ENE 03:46:41 10° NNW
Cosmos 2369 4.1 03:36:10 10° NNW 03:41:41 57° WSW 03:43:19 42° SSW
Spot 2 Rocket 3.8 03:41:46 46° SSW 03:43:06 62° WSW 03:48:11 10° NNW
Cosmos 1151 Rocket 4.1 03:41:29 10° N 03:44:42 33° NE 03:44:42 33° NE
Resurs 01 Rocket 4.1 03:46:28 10° SW 03:49:06 15° W 03:51:44 10° NW
Okean 3 Rocket 4.3 03:50:13 42° NE 03:50:13 42° NE 03:53:34 10° NNE
OAO 1 Rocket 4.4 03:45:07 10° W 03:50:12 67° SSW 03:50:12 67° SSW
Cosmos 2026 Rocket 3.9 03:49:08 45° S 03:51:19 88° W 03:57:40 10° N
BREEZE-M DEB (TANK) 3.6 03:48:10 10° NW 03:51:58 60° NE 03:55:45 32° ESE
BREEZE M DEB (TANK) 3.6 03:48:51 10° WSW 03:52:12 79° NNW 04:11:01 10° ENE
Cosmos 1980 Rocket 2.3 03:47:16 10° NNW 03:52:51 65° WSW 03:53:53 54° SSW
Cosmos 158 Rocket 4.5 03:58:13 36° SW 04:00:05 56° WNW 04:05:13 10° N
Cosmos 2322 Rocket 3.3 03:55:31 10° N 04:00:25 30° ENE 04:00:59 29° ENE
H-2A R/B 4.2 03:56:49 10° NNE 03:59:53 47° NNE 03:59:53 47° NNE
Cosmos 1271 Rocket 3.6 04:00:09 10° N 04:03:10 50° NNW 04:03:10 50° NNW
ISS -1.1 04:08:44 10° NNW 04:10:34 18° N 04:10:34 18° N
USA 267 3.8 04:05:29 10° NE 04:11:52 57° NW 04:18:14 10° WSW
ARIANE 5 R/B 4.1 04:16:06 29° WSW 04:16:17 29° W 04:20:13 10° NW
Meteor 2-21 4.3 04:16:06 75° SE 04:16:34 80° E 04:22:45 10° N
Cosmos 2292 Rocket 4.1 04:16:18 77° SSW 04:16:44 84° W 04:23:32 10° N
ATLAS 3B R/B 2.7 04:11:30 10° NW 04:18:42 79° WSW 04:20:00 63° S
SPOT 5 4.0 04:23:22 30° W 04:23:22 30° W 04:26:53 10° NW
SL-16 R/B 2.3 04:20:04 10° NNW 04:25:32 63° NE 04:25:32 63° NE
Cosmos 304 Rocket 4.3 04:22:52 10° NNW 04:26:50 56° NW 04:26:50 56° NW
Cosmos 1655 Rocket 4.0 04:32:56 67° E 04:32:56 67° E 04:39:05 10° NNE
Cosmos 1553 Rocket 3.8 04:27:13 10° N 04:33:18 86° W 04:33:26 85° SW
Cosmos 2266 Rocket 4.1 04:37:31 61° ENE 04:37:31 61° ENE 04:43:05 10° NNE
COSMOS 2455 4.4 04:44:29 22° ENE 04:44:29 22° ENE 04:47:05 10° NE
USA 234 3.8 04:41:00 39° E 04:42:54 50° NE 04:49:10 10° NW
Terra 3.3 04:43:36 30° W 04:43:36 30° W 04:47:20 10° NW
Meteor 2-16 Rocket 4.4 04:50:10 82° N 04:50:10 82° N 04:55:59 10° N
ALOS 2 4.4 04:56:16 25° NNE 04:56:16 25° NNE 04:58:36 10° N
S3M 4.0 04:54:21 10° N 05:00:35 79° WNW 05:00:35 79° WNW
Cosmos 2056 Rocket 4.1 04:56:25 10° NNW 05:00:39 55° N 05:00:39 55° N
Cosmos 2333 Rocket 3.5 05:04:48 10° N 05:09:38 30° ENE 05:09:38 30° ENE
Cosmos 2360 Rocket 2.7 05:10:11 10° NNW 05:14:45 57° N 05:14:45 57° N
Cosmos 2297 Rocket 4.5 05:37:04 13° ENE 05:37:04 13° ENE 05:38:10 10° ENE
Cosmos 2322 Rocket 3.6 05:39:22 10° NW 05:42:47 29° WNW 05:42:47 29° WNW
Cosmos 2285 Rocket 4.2 05:52:44 10° NNW 05:58:13 67° N 05:58:13 67° N
COSMOS 2428 3.4 06:01:44 10° NNW 06:06:19 51° NNE 06:06:19 51° NNE
SL-16 R/B 4.4 06:05:55 10° WNW 06:07:23 14° WNW 06:07:23 14° WNW
Cosmos 2219 Rocket 2.9 06:07:10 10° NNW 06:11:15 50° NNW 06:11:15 50° NNW
USA 234 4.3 06:28:20 32° W 06:28:20 32° W 06:32:07 10° WNW
COSMOS 2455 3.8 06:27:36 40° WNW 06:27:39 40° NW 06:33:17 10° NNE
Cosmos 2219 4.3 06:34:37 37° ENE 06:34:37 37° ENE 06:38:37 10° NE
Cosmos 1709 Rocket 4.3 06:37:29 58° ENE 06:37:29 58° ENE 06:43:11 10° NNE
NOSS 0 Rocket 4.2 06:32:39 10° NNW 06:38:38 62° NE 06:38:38 62° NE
Cosmos 1745 Rocket 4.2 06:45:31 62° NW 06:45:31 62° NW 06:51:00 10° N
ATLAS 5 CENTAUR R/B 2.8 06:47:57 10° NNW 06:53:42 58° NE 06:54:21 55° E
Cosmos 2333 Rocket 3.8 06:48:57 10° NW 06:51:36 24° WNW 06:51:36 24° WNW
Meteor 1-11 Rocket 4.2 06:56:39 54° NE 06:56:39 54° NE 07:01:12 10° NNE
Lacrosse 5 3.2 06:57:57 35° ENE 06:57:57 35° ENE 07:00:56 10° NE
SL-16 R/B 3.6 07:00:09 31° ESE 07:01:58 37° ENE 07:07:33 10° N
Cosmos 1980 4.0 06:57:21 10° NNW 07:02:27 62° NE 07:02:27 62° NE
Resurs 1-4 Rocket 3.0 06:59:10 10° NNE 07:03:26 41° ENE 07:03:26 41° ENE
Cosmos 2297 Rocket 2.5 07:18:52 59° NW 07:18:52 59° NW 07:23:54 10° NNE
Cosmos 2074 Rocket 4.4 07:23:14 49° ESE 07:23:53 51° E 07:29:53 10° NNE
NPP 4.1 07:19:11 10° NNE 07:24:07 52° E 07:24:07 52° E
Cosmos 2237 Rocket 2.4 07:21:33 10° NNW 07:26:23 65° NW 07:26:23 65° NW
ASTEX 1 4.0 07:29:44 50° NNW 07:29:44 50° NNW 07:33:24 10° N
Cosmos 2227 Rocket 2.4 07:29:32 65° NW 07:29:32 65° NW 07:34:44 10° NNE
ADEOS Rocket 3.7 07:29:11 35° ESE 07:30:46 43° ENE 07:35:57 10° N
Meteor 1-13 Rocket 4.4 07:25:00 10° NNW 07:30:08 67° NW 07:30:08 67° NW
USA 229 DEB 4.1 07:23:48 10° NW 07:30:34 54° WSW 07:30:34 54° WSW
USA 229 4.1 07:23:54 10° NW 07:30:43 55° WSW 07:30:43 55° WSW
Cosmos 1743 4.5 07:39:45 30° N 07:39:45 30° N 07:41:47 10° N
CZ-2D R/B 2.1 07:37:10 10° NNE 07:42:21 80° NNW 07:42:21 80° NNW
Cosmos 2181 Rocket 3.8 07:36:41 10° N 07:43:02 78° W 07:43:19 77° SW
ADEOS II 2.7 07:39:23 10° NNE 07:44:27 47° E 07:44:45 46° ESE
Cosmos 614 Rocket 4.0 07:50:06 72° E 07:50:06 72° E 07:55:07 10° NNE
SL-16 R/B 2.9 07:45:36 10° NNW 07:51:07 52° ENE 07:53:47 29° SE
NOSS 3-1 (A) 4.5 07:44:02 10° NW 07:51:23 44° WSW 07:51:23 44° WSW
Meteor 1-23 Rocket 4.1 07:47:55 10° N 07:53:39 86° W 07:53:54 82° SSW
Cosmos 2263 Rocket 3.3 07:54:29 30° SE 07:55:37 33° ESE 08:00:38 10° NE
Cosmos 1975 4.0 07:57:17 40° ENE 07:57:17 40° ENE 08:00:42 10° NNE
ATLAS CENTAUR R/B 3.8 07:57:40 12° E 07:57:40 12° E 07:58:49 10° E
SL-19 R/B 4.5 07:54:44 10° NNE 08:00:54 80° ESE 08:02:07 60° S
Cosmos 2221 Rocket 3.9 07:57:02 10° N 08:01:25 67° ENE 08:01:25 67° ENE
Cosmos 407 Rocket 4.3 08:01:06 40° SE 08:01:55 43° ESE 08:06:53 10° NNE
Cosmos 1461 3.7 08:05:09 49° E 08:05:09 49° E 08:09:13 10° NE
Cosmos 1992 Rocket 3.9 08:00:59 10° NNW 08:05:56 73° WNW 08:05:56 73° WNW
Cosmos 2344 3.8 08:04:50 41° S 08:07:16 56° ESE 08:14:32 10° NE
Meteor 1-29 4.5 08:08:40 10° NNE 08:10:46 35° NE 08:10:46 35° NE
UNK 4.2 08:14:59 48° WNW 08:14:59 48° WNW 08:18:44 10° NNW
Helios 1B rocket 3.1 08:11:43 10° N 08:14:58 45° NW 08:14:58 45° NW
Cosmos 1238 Rocket 3.9 08:18:43 33° NE 08:18:43 33° NE 08:20:49 10° NNE
Meteor 2-12 Rocket 4.4 08:16:51 55° WSW 08:17:47 61° W 08:23:50 10° N
Cosmos 1674 Rocket 4.1 08:13:26 10° N 08:17:47 54° E 08:18:39 46° ESE
Cosmos 1842 3.6 08:19:07 10° N 08:22:21 61° N 08:22:21 61° N
Nadezhda 3 Rocket 4.1 08:17:06 10° N 08:23:29 79° E 08:26:34 33° SSE
Cosmos 2327 Rocket 4.4 08:25:50 50° SSW 08:27:36 79° W 08:33:46 10° N
BREEZE-M DEB (TANK) 4.0 08:30:27 38° NE 08:30:27 38° NE 08:31:55 10° NE
IDEFIX/ARIANE 42P 2.5 08:29:38 10° NNE 08:34:50 78° ESE 08:36:26 45° S
CBERS-1 4.0 08:29:48 10° NNE 08:34:57 81° ESE 08:36:25 48° S
Cosmos 2251 Rocket 4.3 08:36:33 34° W 08:37:16 36° WNW 08:42:07 10° N
Cosmos 2082 4.5 08:36:22 33° W 08:37:37 37° WNW 08:42:54 10° N
ATLAS 5 CENTAUR R/B 3.9 08:33:18 10° WNW 08:35:47 20° W 08:35:47 20° W
Cosmos 1378 Rocket 3.5 08:34:34 10° N 08:38:57 83° E 08:39:54 54° SSE
Lacrosse 5 3.6 08:37:07 19° WNW 08:39:15 24° NW 08:43:21 10° NNE
Cosmos 1908 Rocket 3.5 08:42:20 56° S 08:43:13 82° E 08:47:32 10° N
Resurs 1-4 Rocket 3.6 08:39:43 10° NNW 08:43:42 22° WNW 08:44:30 21° WNW
USA 215 3.8 08:38:34 10° NE 08:44:49 46° SE 08:47:58 28° S
Cosmos 1356 Rocket 3.1 08:44:46 72° SW 08:45:03 76° W 08:49:04 10° N
SL-16 R/B 3.2 08:45:15 32° WSW 08:45:31 32° W 08:50:59 10° NW
Cosmos 1733 Rocket 4.2 08:50:26 28° WNW 08:50:26 28° WNW 08:54:11 10° NNW
Cosmos 2154 Rocket 4.4 08:50:40 36° WSW 08:52:31 45° WNW 08:58:27 10° N
BREEZE-M DEB (TANK) 4.4 08:45:45 23° WSW 08:53:01 62° NW 08:56:52 10° NE
SWARM A 4.2 08:53:26 68° NW 08:53:26 68° NW 08:56:30 10° N
Cosmos 1190 Rocket 3.9 08:51:32 41° SSW 08:53:27 86° WNW 08:58:47 10° NNE
DELTA 2 DEB (DPAF) 4.0 08:53:13 46° SSW 08:54:26 68° W 08:58:51 10° NNW
SL-8 R/B 4.0 08:53:11 36° W 08:54:52 58° NNW 08:59:37 10° NE
Cosmos 1140 Rocket 3.6 08:54:56 41° SW 08:56:35 63° WNW 09:01:49 10° NNE
Meteor 1-21 4.3 08:56:56 10° NNW 09:02:39 62° W 09:05:54 26° SSW
ASTRO E2 3.7 09:05:37 29° SSE 09:05:37 29° SSE 09:08:55 10° ESE
CZ-4C R/B 3.3 09:04:26 25° SSE 09:06:44 89° W 09:10:58 10° NNW
MSX 3.8 09:01:15 10° N 09:06:58 76° WNW 09:10:11 27° SSW
CZ-4B R/B 3.8 09:02:36 10° NNE 09:07:23 58° ESE 09:10:42 19° S
Cosmos 1954 Rocket 4.1 09:04:41 27° S 09:07:36 78° ESE 09:12:56 10° NNE
Okean 2 3.8 09:04:27 10° NNW 09:08:26 44° W 09:09:08 40° WSW
Cosmos 44 4.2 09:04:01 10° NNW 09:09:07 52° NE 09:13:52 10° SE
Cosmos 1844 Rocket 4.4 09:04:41 10° SSE 09:09:19 27° ESE 09:13:59 10° NE
ARIANE 5 R/B 2.6 09:06:54 10° NNE 09:12:06 80° ESE 09:15:41 21° S
Meteor 1-28 Rocket 4.4 09:16:25 25° W 09:16:25 25° W 09:19:05 10° NW
ADEOS Rocket 4.0 09:16:08 21° W 09:16:28 21° W 09:20:38 10° NW
Cosmos 1603 4.1 09:12:39 10° NNW 09:18:15 67° ENE 09:23:50 10° SSE
Milstar 3 3.8 09:15:44 21° SSW 09:18:34 27° SSE 09:24:08 10° ESE
CZ-2D R/B 3.6 09:15:47 10° NNE 09:19:46 67° ESE 09:22:37 19° S
CZ-2D R/B 4.3 09:20:59 10° NW 09:21:45 10° WNW 09:22:32 10° WNW
Cosmos 1959 Rocket 4.4 09:17:53 16° S 09:22:50 85° W 09:29:02 10° N
Cosmos 864 Rocket 4.5 09:17:39 15° S 09:22:50 88° W 09:29:08 10° N
ADEOS II 3.6 09:19:58 10° NNW 09:23:45 20° WNW 09:25:41 17° W
Spot 4 Rocket 4.5 09:19:17 10° NNE 09:24:23 60° ESE 09:29:28 10° S
Cosmos 1782 Rocket 3.6 09:23:31 27° SSW 09:25:43 61° W 09:30:03 10° N
CZ-2C R/B 4.2 09:23:05 10° NNE 09:26:28 33° E 09:29:54 10° SSE
Sich 1 Rocket 4.0 09:24:30 11° S 09:28:41 60° E 09:33:02 10° NNE
Cosmos 1805 3.2 09:26:33 19° S 09:29:17 82° E 09:33:12 10° N
SL-8 Rocket 4.0 09:24:57 20° SSW 09:29:19 60° W 09:35:25 10° N
Cosmos 2366 rocket 4.0 09:26:46 15° SSW 09:32:04 72° W 09:38:26 10° N
IRS-1C 4.4 09:27:43 10° N 09:32:53 52° WNW 09:36:26 20° SW
SL-16 R/B 3.5 09:30:50 10° NW 09:34:46 20° W 09:35:34 19° WSW
CZ-3 R/B 4.4 09:15:06 18° SW 09:34:46 36° S 09:44:05 10° ESE
ATLAS CENTAUR R/B 1.8 09:33:49 25° WSW 09:35:30 41° NW 09:39:13 10° NNE
Cosmos 676 Rocket 4.2 09:32:40 21° SW 09:36:08 59° WNW 09:41:26 10° N
KORONAS-FOTON 3.8 09:33:02 10° NNW 09:36:56 67° W 09:40:44 10° S
Cosmos 2263 Rocket 3.2 09:36:11 19° WSW 09:39:28 32° WNW 09:44:33 10° N
Cosmos 1707 4.1 09:41:23 10° NW 09:44:15 20° W 09:45:07 19° WSW
SL-14 R/B 4.3 09:41:26 10° N 09:45:12 46° E 09:48:58 10° SSE
PAYLOAD A 4.1 09:40:12 10° NNE 09:45:39 86° WNW 09:50:58 10° SSW
ALOS 2.8 09:45:40 10° NNE 09:50:18 61° E 09:54:53 10° S
GEOS 3 Rocket 3.6 09:45:04 10° SSE 09:50:26 83° SW 09:55:48 10° NW
CZ-4C R/B 3.1 09:43:04 10° NW 09:50:38 63° WSW 09:59:06 10° SSE
Cosmos 1741 Rocket 4.2 09:50:20 10° S 09:55:32 73° ESE 10:00:48 10° NNE
Cosmos 1733 3.4 09:52:52 13° SSW 09:56:06 51° W 09:59:52 10° N
Cosmos 2218 Rocket 4.5 09:52:26 12° SSW 09:57:56 43° WNW 10:03:57 10° N
SL-08 R/B 3.6 09:53:17 10° S 09:58:03 49° W 10:02:51 10° NNW
Cosmos 1766 3.2 09:54:28 10° SSW 09:58:18 67° W 10:02:11 10° N
Meteor 2-20 Rocket 4.4 09:52:42 10° NNW 09:58:49 73° W 10:04:57 10° S
Cosmos 1470 4.3 09:55:51 10° SSE 09:59:27 36° E 10:03:04 10° NNE
Cosmos 1763 Rocket 3.9 09:56:00 10° NNW 10:01:20 72° ENE 10:06:35 10° SSE
USA 281 4.0 09:55:55 10° SE 10:02:18 56° ENE 10:08:42 10° NNW
Cosmos 1300 Rocket 3.8 10:01:58 10° SSW 10:06:09 50° W 10:10:24 10° N
Cosmos 1727 Rocket 4.0 10:00:50 10° NNW 10:07:02 71° W 10:13:17 10° S
Meteor 1-15 Rocket 4.4 10:01:40 10° SSW 10:07:31 61° W 10:13:21 10° N
USA 290 2.3 10:06:51 10° NNW 10:10:06 79° ENE 10:13:20 10° SSE
Cosmos 1975 Rocket 3.9 10:09:53 10° NNW 10:13:42 30° W 10:17:28 10° SSW
Cosmos 1484 Rocket 3.2 10:10:05 10° NNE 10:14:02 69° E 10:17:59 10° S
Cosmos 1943 3.6 10:09:18 10° NW 10:14:36 41° WSW 10:19:52 10° S
Cosmos 1844 3.8 10:09:08 10° SSW 10:14:40 82° ESE 10:20:15 10° NNE
Cosmos 1340 4.0 10:13:15 10° NW 10:16:08 21° W 10:19:01 10° SW
CZ-2C R/B 2.8 10:13:28 10° N 10:17:45 41° WNW 10:22:04 10° SW
Cosmos 1400 Rocket 4.0 10:16:17 10° SW 10:19:26 24° WNW 10:22:38 10° NNW
SL-24 R/B - RUBIN 2 3.6 10:14:41 10° NW 10:19:30 68° WSW 10:23:51 10° SSE
Cosmos 1626 3.0 10:16:55 10° NNW 10:20:11 30° W 10:23:26 10° SSW
CZ-3B R/B 3.9 10:12:31 10° WSW 10:20:35 28° S 10:24:55 10° SE
Cosmos 1674 4.5 10:24:08 10° NW 10:26:24 15° W 10:28:40 10° SW
Cosmos 1315 Rocket 2.8 10:22:50 10° SSW 10:26:55 74° W 10:31:00 10° N
Okean 1 Rocket 3.5 10:23:04 10° S 10:27:25 69° E 10:31:50 10° NNE
USA 215 3.8 10:21:33 10° NE 10:27:47 49° NW 10:34:00 10° WSW
SL-19 R/B 4.3 10:25:11 10° S 10:30:43 67° WSW 10:36:31 10° NNW
